Location: Baia Mare
(47.6567°N, 23.5850°E)
Time: 11:50:06
(UTC+02:00)

ISS - Pass Details

Date: 04 January 2019
Orbit: 404 x 407 km, 51.6° (Epoch: 16 January)

Event Time Altitude Azimuth Distance (km) Brightness Sun altitude
Exits shadow 06:30:23 35° 332° (NNW) 679 -3.1 -16.6°
Maximum altitude 06:31:06 41° 6° (N) 606 -3.1 -16.5°
Drops below altitude 10° 06:34:15 10° 79° (E) 1,471 0.0 -16.0°
Sets 06:36:25 0° 87° (E) 2,330 1.4 -15.6°
